Weather History for KIAG - August, 2013

Change the Weather History Date:

Monday, August 12, 2013

  Actual Average Record
Temperature  
Mean Temperature 66 °F -  
Max Temperature 73 °F 78 °F 90 °F (2002)
Min Temperature 60 °F 58 °F 50 °F (2006)
Cooling Degree Days 2    
Growing Degree Days 16 (Base 50)    
Moisture  
Dew Point 60 °F    
Average Humidity 74    
Maximum Humidity 88    
Minimum Humidity 59    
Precipitation  
Precipitation 0.00 in - - ()
Sea Level Pressure  
Sea Level Pressure 29.97 in    
Wind  
Wind Speed 6 mph (SW)    
Max Wind Speed 16 mph    
Max Gust Speed -    
Visibility 10 miles    
Events Rain    
Averages and records for this station are not official NWS values.
T = Trace of Precipitation, MM = Missing Value Source: NWS Daily Summary

Daily Weather History Graph

Daily Weather History Graph

Search for Another Location

Airport or City:

Trip Planner

Search our weather history database for the weather conditions in past years. The results will help you decide how hot, cold, wet, or windy it might be!

Date:

Astronomy

Aug. 12, 2013 Rise Set
Actual Time 6:18 AM EDT 8:22 PM EDT
Civil Twilight 5:47 AM EDT 8:53 PM EDT
Nautical Twilight 5:09 AM EDT 9:31 PM EDT
Astronomical Twilight 4:27 AM EDT 10:12 PM EDT
Moon 12:18 PM EDT (8/12) 11:02 PM EDT (8/12)
Length of Visible Light 15h 05m
Length of Day
14h 03m
Waxing Crescent, 31% of the Moon is Illuminated
Aug 12
Waxing Crescent
Aug 14
First Quarter
Aug 20
Full
Aug 28
Last Quarter
Sep 5
New

Hourly Weather History & Observations

Time (EDT) Temp. Dew Point Humidity Pressure Visibility Wind Dir Wind Speed Gust Speed Precip Events Conditions
12:53 AM 66.0 °F 55.9 °F 70% 30.05 in 10.0 mi West 3.5 mph - N/A   Overcast
1:53 AM 64.9 °F 55.9 °F 73% 30.05 in 10.0 mi West 4.6 mph - N/A   Overcast
2:53 AM 64.9 °F 55.0 °F 70% 30.03 in 10.0 mi WNW 3.5 mph - N/A   Overcast
3:53 AM 63.0 °F 54.0 °F 72% 30.03 in 10.0 mi West 4.6 mph - N/A   Clear
4:53 AM 63.0 °F 55.9 °F 78% 30.03 in 10.0 mi WSW 3.5 mph - N/A   Overcast
5:53 AM 63.0 °F 55.9 °F 78% 30.03 in 10.0 mi Calm Calm - N/A   Partly Cloudy
6:53 AM 62.1 °F 57.0 °F 84% 30.03 in 10.0 mi Calm Calm - N/A   Scattered Clouds
7:05 AM 60.8 °F 57.2 °F 88% 30.03 in 10.0 mi Calm Calm - N/A   Mostly Cloudy
7:53 AM 66.0 °F 59.0 °F 78% 30.02 in 10.0 mi Calm Calm - N/A   Mostly Cloudy
8:53 AM 69.1 °F 60.1 °F 73% 30.03 in 10.0 mi Calm Calm - N/A   Mostly Cloudy
9:53 AM 70.0 °F 57.9 °F 65% 30.02 in 10.0 mi South 3.5 mph - N/A   Mostly Cloudy
10:53 AM 71.1 °F 57.9 °F 63% 30.01 in 10.0 mi WSW 5.8 mph - N/A   Mostly Cloudy
11:53 AM 72.0 °F 57.0 °F 59% 29.99 in 10.0 mi SSW 6.9 mph - N/A   Mostly Cloudy
12:51 PM 71.6 °F 57.2 °F 60% 29.99 in 10.0 mi WSW 5.8 mph - N/A   Overcast
12:53 PM 73.0 °F 57.9 °F 59% 29.98 in 10.0 mi SSW 4.6 mph - N/A   Overcast
1:53 PM 73.0 °F 59.0 °F 61% 29.97 in 10.0 mi SSW 9.2 mph - N/A   Overcast
2:53 PM 72.0 °F 57.9 °F 61% 29.97 in 10.0 mi SW 9.2 mph - N/A   Overcast
3:45 PM 71.6 °F 60.8 °F 69% 29.96 in 10.0 mi SW 12.7 mph - 0.00 in Rain Light Rain
3:53 PM 70.0 °F 61.0 °F 73% 29.96 in 10.0 mi SW 11.5 mph - 0.00 in Rain Light Rain
4:19 PM 69.8 °F 62.6 °F 78% 29.95 in 10.0 mi SW 9.2 mph - 0.00 in   Mostly Cloudy
4:53 PM 71.1 °F 62.1 °F 73% 29.94 in 10.0 mi SW 16.1 mph - 0.00 in   Mostly Cloudy
5:53 PM 72.0 °F 64.0 °F 76% 29.91 in 10.0 mi SSW 12.7 mph - N/A   Mostly Cloudy
6:15 PM 71.6 °F 62.6 °F 73% 29.91 in 10.0 mi SSW 15.0 mph - N/A   Mostly Cloudy
6:53 PM 71.1 °F 63.0 °F 75% 29.90 in 10.0 mi SW 15.0 mph - N/A   Mostly Cloudy
7:21 PM 69.8 °F 62.6 °F 78% 29.90 in 10.0 mi SW 12.7 mph - N/A   Mostly Cloudy
7:53 PM 70.0 °F 63.0 °F 78% 29.88 in 10.0 mi SW 9.2 mph - N/A   Mostly Cloudy
8:53 PM 68.0 °F 63.0 °F 84% 29.87 in 10.0 mi SW 10.4 mph - N/A   Mostly Cloudy
9:53 PM 68.0 °F 64.0 °F 87% 29.87 in 10.0 mi SW 10.4 mph - N/A   Mostly Cloudy
10:53 PM 68.0 °F 64.0 °F 87% 29.86 in 10.0 mi SW 8.1 mph - N/A   Mostly Cloudy
11:53 PM 69.1 °F 64.0 °F 84% 29.84 in 9.0 mi SW 9.2 mph - 0.00 in Rain Light Rain